Tracking 22881 objects as of 19-Apr-2021
HD Live streaming from Space Station
objects crossing your sky now

STARLINK 1036

Track STARLINK 1036 now!
10-day predictions
STARLINK 1036 is classified as:


NORAD ID: 44741
Int'l Code: 2019-074AE
Perigee: 553.1 km
Apogee: 555.6 km
Inclination: 53.1 °
Period: 95.6 minutes
Semi major axis: 6925 km
RCS: Unknown
Launch date: November 11, 2019
Source: United States (US)
Launch site: AIR FORCE EASTERN TEST RANGE (AFETR)
aabbcc
Your satellite tracking list
Your tracking list is empty




NASA's NSSDC Master Catalog

Two Line Element Set (TLE):
1 44741U 19074AE  21108.85445613  .00001062  00000-0  90173-4 0  9992
2 44741  53.0561 303.5302 0001765 103.7014 256.4171 15.06403099 79305
Source of the keplerian elements: AFSPC